User: anonymous   Login
Location: Unspecified
(0.0000°N, 0.0000°E)
Time: 18:26:04
(UTC+00:00)
Language:

CORVUS BC2 - Orbit

View from above orbital plane
View from above orbital plane
View from above satellite
View from above satellite

Ground track
Ground track

The orbit data is extracted from the following two-line orbital elements,

1 42846U 17042X   18049.21519008  .00000372  00000-0  42315-4 0  9997
2 42846  97.6068 316.3196 0008456 227.1566 132.8943 14.91761507 32638
Epoch (UTC): 18 February 2018 05:09:52
Eccentricity: 0.0008456
inclination: 97.6068°
perigee height: 586 km
apogee height: 598 km
right ascension of ascending node: 316.3196°
argument of perigee: 227.1566°
revolutions per day: 14.91761507
mean anomaly at epoch: 132.8943°
orbit number at epoch: 3263

The dashed part of the orbit path shows where the satellite is in the earth's shadow,  

DLR